BREEZE-KM R/B, 44518

Orbit data source: Space-Track

BREEZE-KM R/B, 44518 is space debris in SSO originally from a launch on Fri, 30 Aug 2019 UTC launched from the Plesetsk Missile And Space Complex (PKMTR). Debris objects in space refer to the collection of defunct objects orbiting the Earth. Examples of debris include non-operational satellites, rocket bodies, and fragments generated from explosions, collisions, or faulty payload assembly.

Loading next visibility...
Identifier
44518, 2019-057B
Orbit
SSO
Country
Flag of CISCIS
Related business
Manufacturer
Khrunichev
Mission
Spacecraft
Bus & Motor
BRIZ, S5.92
Mass
2,370 kg wet, 2,370 kg dry
Launch date (UTC)
2019-08-30 (6 years ago)
Launch vehicle
Unknown
Launch site
Plesetsk Missile And Space Complex (PKMTR)
Object type
Payload
Rocket body
Debris
Shape & HBR
Hex Cyl + 1 Rod, 2.0 m
Radar Cross Section
10.190 m², Large (>1 m²)

Expand to show TLE details & history
Last TLE update: 12 hours ago

TLE from 12 hours ago
0 BREEZE-KM R/B
1 44518U 19057B   25287.83787900  .00000128  00000-0  62688-4 0  9995
2 44518  99.1317  57.6335 0198518 318.5679  40.0588 14.25425517318591
Epoch: 2025-10-14T20:06Z
TLE epoch observation values (Epoch: 2025-10-14T20:06:32.745Z)
Latitude
-0.00007°
Longitude
92.3765°
Altitude
701.977 km
Speed
7.561 km/s
True Right ascension
03h 50m 32s
True Declination
0° 00' 00"
Sunlit
Object was in full shadow at epoch
Visualization orbit readout
Latitude
Unknown
Longitude
Unknown
Altitude
Unknown
Speed
Unknown
Apparent Right ascension
Unknown
Apparent Declination
Unknown
Sunlit
N/A
Visualization observer readout
Local Sidereal Time
02:44:18
Azimuth
Unknown
Elevation
Unknown
Doppler factor
Unknown
Orbital elements
Apogee altitude
946.816 km
Perigee altitude
661.65 km
Semi-major axis
7,182.37 km
Eccentricity
0.01985
Inclination
99.1317°
RAAN
57.6335°
Arg. of periapsis
318.5679°
True anomaly
41.55098°
Mean anomaly
40.0588°
Eccentric anomaly
40.80205°
Mean motion
3.56567 °/min
Orbital period
100.96 mins
BSTAR
0.000062688
Loading maneuver chart data...
Computing Atmospheric mass density...
Loading historical data...
Loading historical data...
Loading historical data...
Loading historical data...
Loading historical data...
Loading historical data...
Loading historical data...
Other satellites on launch #57 in the year 2019 (2019-08-30 UTC)

Documentation

Showing up to 5 results
|